Location: Newark
(50.8547°N, 2.7256°E)
Time: 06:13:59
(UTC+00:00)

Envisat - Pass Details

Date: 02 February 2020
Orbit: 764 x 766 km, 98.1° (Epoch: 27 February)

Event Time Altitude Azimuth Distance (km) Brightness Sun altitude
Rises 17:31:56 0° 168° (SSE) 3,222 6.3 -8.2°
Reaches altitude 10° 17:34:13 10° 169° (S) 2,300 5.6 -8.6°
Maximum altitude 17:39:18 78° 256° (WSW) 789 3.2 -9.4°
Drops below altitude 10° 17:44:25 10° 343° (NNW) 2,316 5.5 -10.1°
Sets 17:46:44 0° 345° (NNW) 3,246 6.3 -10.5°
